Regional Weather Roundup
Issued by NWS

Home | Current Version | Previous Version | Graphics & Text | Print | Product List | Glossary On
Versions: 1 2 3 4 5 6 7 8 9 10 11 12 13 14 15 16 17 18 19 20 21 22 23 24 25 26 27 28 29 30 31 32 33 34 35 36 37 38 39 40 41 42 43 44 45 46 47 48 49 50
518
ASUS43 KFSD 230102
RWRSD

WEATHER ROUNDUP FOR SOUTH DAKOTA
NATIONAL WEATHER SERVICE SIOUX FALLS SD
700 PM CST SUN JAN 22 2017

NOTE: "FAIR" INDICATES FEW OR NO CLOUDS BELOW 12,000 FEET WITH NO
SIGNIFICANT WEATHER AND/OR OBSTRUCTIONS TO VISIBILITY.


SDZ001>005-009-010-012>017-230200-
NORTHWEST AND NORTH CENTRAL SOUTH DAKOTA

CITY           SKY/WX    TMP DP  RH WIND       PRES   REMARKS
BUFFALO          N/A     21  18  88 NW6       29.76S WCI  13
FAITH            N/A     22  21  96 N7        29.85R WCI  13
MOBRIDGE       CLOUDY    31  25  78 NW10      29.84S WCI  22
$$

SDZ012>016-024>037-041>051-057-063-072>074-230200-
SOUTHWEST AND SOUTH CENTRAL SOUTH DAKOTA

CITY           SKY/WX    TMP DP  RH WIND       PRES   REMARKS
RAPID CTY ARPT CLEAR     27  22  81 CALM      29.84R
PIERRE         CLOUDY    28  25  88 W7        29.89R WCI  21
CUSTER         CLEAR     28  14  55 CALM      29.80S
ELLSWORTH AFB  CLEAR     32  23  69 E3        29.83S
PHILIP         CLEAR     21  19  92 SE5       29.88S WCI  15
PINE RIDGE     CLEAR     29  23  78 E5        29.85R WCI  24
SPEARFISH      FAIR      34  19  55 SW8       29.82R WCI  27
WINNER         FAIR      25  22  88 CALM      29.90R
$$

SDZ004>011-016>023-039-040-230200-
NORTHEAST SOUTH DAKOTA

CITY           SKY/WX    TMP DP  RH WIND       PRES   REMARKS
ABERDEEN       CLOUDY    31  26  82 W9        29.85R WCI  23
WATERTOWN      CLOUDY    29  27  92 NW9       29.80R WCI  20
BROOKINGS      CLOUDY    29  27  92 NW13      29.81S WCI  19
SISSETON         N/A     33  31  92 NW12      29.79S WCI  24
$$

SDZ017-020-022-023-036>040-048>070-230200-
SOUTHEAST SOUTH DAKOTA

CITY           SKY/WX    TMP DP  RH WIND       PRES   REMARKS
SIOUX FALLS    CLOUDY    31  28  89 NW13G21   29.84S WCI  21
HURON          CLOUDY    29  27  92 W12       29.87R WCI  19
CHAMBERLAIN    CLOUDY    31  28  90 W9        29.90S WCI  23
MITCHELL       CLOUDY    31  27  85 W10       29.89R WCI  22
YANKTON        CLEAR     28  25  86 NW7       29.87S WCI  21
$$

ABBREVIATIONS USED IN REMARKS
   TC - TEMPERATURE IN CELSIUS
  WCI - WIND CHILL INDEX
   HX - HEAT INDEX
  VSB - VISIBILITY





USA.gov is the U.S. government's official web portal to all federal, state and local government web resources and services.